period_start,C,m1,H,J0,J1,J2,J3,J4,J5,JA,JB,JC,JD,JJ,JK,JN,#
2016-05-01 00:03:36,0.01,3.32,0.00,21.10,25.87,29.77,14.58,50.59,1005.02,2040.00,2301.30,2375.00,2650.99,600.16,593.25,55.35,0000 0000 0000 0000 000000
2016-05-01 00:08:37,0.00,3.32,0.00,21.12,25.88,29.79,14.51,50.47,1005.00,2040.00,2301.02,2374.99,2650.98,599.83,592.83,55.40,0000 0000 0000 0000 000000
2016-05-01 00:13:38,0.01,3.32,0.00,21.15,25.90,29.75,14.56,50.41,1004.93,2040.00,2301.00,2374.97,2650.77,600.13,593.08,55.45,0000 0000 0000 0000 000000
2016-05-01 00:18:40,0.04,3.32,0.00,21.16,25.90,29.80,14.59,50.50,1004.90,2040.00,2300.82,2374.54,2650.12,600.27,593.00,55.50,0000 0000 0000 0000 000000
2016-05-01 00:23:41,0.03,3.33,0.00,21.17,25.90,29.83,14.56,50.47,1004.90,2040.00,2300.16,2374.03,2650.00,600.05,593.07,55.55,0000 0000 0000 0000 000000
2016-05-01 00:28:42,0.00,3.33,0.00,21.20,25.91,29.85,14.51,50.38,1004.90,2040.00,2300.00,2374.00,2649.95,599.98,592.74,55.60,0000 0000 0000 0000 000000
2016-05-01 00:33:43,0.03,3.33,0.00,21.23,25.92,29.88,14.64,50.63,1004.82,2040.00,2299.84,2373.89,2649.24,600.14,592.77,55.65,0000 0000 0000 0000 000000
2016-05-01 00:38:45,0.05,3.33,0.00,21.27,25.93,29.89,14.60,50.59,1004.82,2040.00,2299.12,2373.19,2649.00,600.23,592.78,55.70,0000 0000 0000 0000 000000
2016-05-01 00:43:46,0.00,3.33,0.00,21.29,25.95,29.94,14.60,50.52,1004.88,2039.99,2298.99,2373.01,2648.97,599.68,592.31,55.75,0000 0000 0000 0000 000000
2016-05-01 00:48:48,0.03,3.33,0.00,21.30,25.96,30.00,14.59,50.63,1004.89,2039.99,2298.65,2373.00,2648.44,600.27,592.83,55.80,0000 0000 0000 0000 000000
2016-05-01 00:53:49,0.02,3.33,0.00,21.32,25.97,29.98,14.58,50.61,1004.89,2039.99,2298.11,2372.88,2648.03,599.89,592.43,55.85,0000 0000 0000 0000 000000
2016-05-01 00:58:50,0.03,3.33,0.00,21.34,26.00,30.02,14.67,50.58,1004.70,2039.96,2298.00,2372.14,2647.99,600.10,592.48,55.90,0000 0000 0000 0000 000000
2016-05-01 01:03:51,0.03,3.34,0.00,21.37,26.01,30.05,14.61,50.52,1004.44,2039.97,2297.69,2372.00,2647.54,600.23,592.44,55.96,0000 0000 0000 0000 000000
2016-05-01 01:08:52,0.01,3.34,0.00,21.40,26.02,30.10,14.51,50.52,1004.41,2039.93,2297.02,2371.93,2647.01,599.83,592.00,56.01,0000 0000 0000 0000 000000
2016-05-01 01:13:53,0.01,3.34,0.00,21.43,26.05,30.10,14.41,50.43,1004.39,2039.86,2296.96,2371.28,2646.97,599.68,591.74,56.06,0000 0000 0000 0000 000000
2016-05-01 01:18:55,0.04,3.34,0.00,21.45,26.07,30.12,14.59,50.52,1004.40,2039.82,2296.31,2371.01,2646.50,600.10,591.95,56.11,0000 0000 0000 0000 000000
2016-05-01 01:23:56,-0.02,3.34,0.00,21.46,26.08,30.14,14.53,50.52,1004.41,2039.67,2296.00,2370.99,2646.02,599.99,591.95,56.16,0000 0000 0000 0000 000000
2016-05-01 01:28:58,0.02,3.34,0.00,21.48,26.10,30.16,14.48,50.58,1004.33,2039.37,2295.65,2370.53,2645.95,599.96,591.83,56.21,0000 0000 0000 0000 000000
2016-05-01 01:33:59,0.03,3.34,0.00,21.51,26.12,30.20,14.53,50.49,1004.36,2039.19,2295.03,2370.02,2645.27,599.96,591.84,56.26,0000 0000 0000 0000 000000
2016-05-01 01:39:00,-0.00,3.34,0.00,21.52,26.14,30.20,14.55,50.61,1004.41,2039.07,2294.93,2369.98,2645.00,600.19,591.88,56.31,0000 0000 0000 0000 000000
2016-05-01 01:44:01,0.06,3.34,0.00,21.56,26.16,30.24,14.51,50.55,1004.36,2039.02,2294.18,2369.44,2644.70,600.02,591.75,56.36,0000 0000 0000 0000 000000
2016-05-01 01:49:03,0.02,3.35,0.00,21.58,26.18,30.23,14.52,50.55,1004.03,2039.00,2293.95,2369.01,2644.02,599.92,591.41,56.41,0000 0000 0000 0000 000000
2016-05-01 01:54:04,0.02,3.35,0.00,21.63,26.20,30.27,14.53,50.48,1003.93,2039.00,2293.41,2368.97,2643.94,599.92,591.23,56.46,0000 0000 0000 0000 000000
2016-05-01 01:59:05,0.06,3.35,0.00,21.66,26.22,30.32,14.48,50.48,1003.92,2038.99,2293.00,2368.26,2643.16,600.05,591.30,56.51,0000 0000 0000 0000 000000
2016-05-01 02:04:06,0.01,3.35,0.00,21.68,26.25,30.35,14.44,50.47,1003.92,2038.99,2292.68,2368.00,2642.99,599.92,591.11,56.56,0000 0000 0000 0000 000000
2016-05-01 02:09:07,0.03,3.35,0.00,21.72,26.27,30.35,14.50,50.46,1003.92,2038.96,2292.03,2367.86,2642.49,599.78,590.92,56.61,0000 0000 0000 0000 000000
2016-05-01 02:14:08,0.03,3.35,0.00,21.77,26.30,30.39,14.60,50.44,1003.92,2038.93,2291.79,2367.22,2642.01,600.27,591.29,56.66,0000 0000 0000 0000 000000
2016-05-01 02:19:09,-0.00,3.36,0.00,21.80,26.33,30.40,14.44,50.62,1003.92,2038.65,2291.06,2367.00,2641.76,599.56,590.66,56.71,0000 0000 0000 0000 000000
2016-05-01 02:24:11,-0.02,3.35,0.00,21.90,26.36,30.29,14.56,50.63,1003.78,2038.14,2290.87,2366.94,2641.04,599.89,590.58,56.76,0000 0000 0000 0000 000000
2016-05-01 02:29:12,0.03,3.35,0.00,22.57,26.41,30.07,14.48,50.33,1003.72,2038.10,2290.52,2366.33,2640.98,599.91,589.26,56.81,0000 0000 0000 0000 000000
2016-05-01 02:34:13,0.03,3.36,0.00,23.03,26.47,29.97,14.38,50.22,1003.92,2038.00,2290.02,2365.97,2640.20,599.99,588.48,56.86,0000 0000 0000 0000 000000
2016-05-01 02:39:14,0.06,3.36,0.00,23.28,26.53,29.98,14.37,50.41,1003.92,2037.98,2289.52,2365.21,2639.71,600.20,588.25,56.92,0000 0000 0000 0000 000000
2016-05-01 02:44:15,-0.00,3.36,0.00,23.45,26.60,30.10,14.39,50.31,1003.92,2037.74,2288.96,2364.78,2638.98,600.28,587.99,56.97,0000 0000 0000 0000 000000
2016-05-01 02:49:17,0.01,3.36,0.00,23.53,26.68,30.22,14.27,50.24,1003.92,2037.06,2288.17,2364.03,2638.13,599.40,586.92,57.02,0000 0000 0000 0000 000000
2016-05-01 02:54:18,0.07,3.36,0.00,23.64,26.76,30.32,14.30,50.27,1003.92,2036.98,2287.46,2363.24,2637.28,599.68,587.02,57.07,0000 0000 0000 0000 000000
2016-05-01 02:59:19,0.00,3.37,0.00,23.62,26.83,30.39,14.39,50.34,1003.93,2036.68,2286.80,2362.70,2636.59,600.37,587.73,57.12,0000 0000 0000 0000 000000
2016-05-01 03:04:21,0.00,3.37,0.00,23.61,26.91,30.42,14.33,50.29,1003.99,2036.06,2286.01,2362.01,2635.86,599.85,587.27,57.17,0000 0000 0000 0000 000000
2016-05-01 03:09:22,0.07,3.37,0.00,23.58,26.99,30.45,14.35,50.28,1004.18,2035.98,2285.16,2361.21,2635.04,599.85,587.43,57.22,0000 0000 0000 0000 000000
2016-05-01 03:14:23,0.00,3.37,0.00,23.54,27.07,30.48,14.34,50.23,1004.25,2035.51,2284.37,2360.57,2634.21,599.73,587.45,57.27,0000 0000 0000 0000 000000
2016-05-01 03:19:24,0.01,3.37,0.00,23.61,27.14,30.52,14.22,50.26,1004.13,2035.03,2283.77,2360.00,2633.50,599.56,587.15,57.32,0000 0000 0000 0000 000000
2016-05-01 03:24:25,0.06,3.37,0.00,23.59,27.22,30.60,14.36,50.31,1004.05,2034.99,2283.01,2359.29,2632.84,599.72,587.19,57.37,0000 0000 0000 0000 000000
2016-05-01 03:29:27,0.03,3.37,0.00,23.70,27.29,30.68,14.34,50.32,1004.23,2034.69,2282.11,2358.63,2632.01,599.95,587.44,57.42,0000 0000 0000 0000 000000
2016-05-01 03:34:28,0.00,3.37,0.00,23.76,27.36,30.76,14.35,50.33,1004.01,2034.06,2281.17,2357.97,2631.12,599.96,587.12,57.47,0000 0000 0000 0000 000000
2016-05-01 03:39:29,0.08,3.38,0.00,23.86,27.43,30.83,14.38,50.23,1003.93,2034.00,2280.55,2357.14,2630.38,600.02,586.90,57.52,0000 0000 0000 0000 000000
2016-05-01 03:44:31,0.06,3.38,0.00,23.91,27.49,30.86,14.29,50.27,1003.92,2033.93,2279.74,2356.50,2629.63,599.87,586.69,57.57,0000 0000 0000 0000 000000
2016-05-01 03:49:32,0.01,3.38,0.00,23.93,27.55,30.92,14.34,50.40,1003.93,2033.33,2278.50,2355.68,2628.64,599.94,586.58,57.62,0000 0000 0000 0000 000000
2016-05-01 03:54:34,0.04,3.38,0.00,24.05,27.61,30.97,14.38,50.20,1003.92,2033.01,2277.65,2354.94,2627.84,600.24,586.76,57.67,0000 0000 0000 0000 000000
2016-05-01 03:59:35,0.07,3.39,0.00,24.01,27.67,31.01,14.33,50.41,1003.92,2032.99,2276.78,2354.12,2627.00,599.82,586.36,57.72,0000 0000 0000 0000 000000
2016-05-01 04:04:36,0.07,3.39,0.00,23.93,27.72,31.03,14.38,50.27,1003.92,2032.86,2275.73,2353.42,2626.15,600.03,586.74,57.78,0000 0000 0000 0000 000000
2016-05-01 04:09:37,-0.04,3.39,0.00,23.98,27.77,31.05,14.31,50.31,1003.92,2032.20,2274.99,2352.94,2625.32,600.08,586.73,57.83,0000 0000 0000 0000 000000
2016-05-01 04:14:38,0.05,3.39,0.00,24.11,27.82,31.08,14.35,50.28,1003.92,2032.02,2274.18,2352.14,2624.90,599.95,586.28,57.88,0000 0000 0000 0000 000000
2016-05-01 04:19:39,0.06,3.39,0.00,24.25,27.87,31.12,14.29,50.26,1003.92,2032.00,2273.53,2351.78,2624.08,599.94,585.94,57.93,0000 0000 0000 0000 000000
2016-05-01 04:24:41,0.06,3.40,0.00,24.17,27.91,31.16,14.33,50.32,1003.92,2032.00,2272.73,2351.04,2623.38,599.86,586.10,57.98,0000 0000 0000 0000 000000
2016-05-01 04:29:42,0.05,3.40,0.00,24.18,27.95,31.16,14.37,50.33,1003.92,2031.96,2271.94,2350.36,2622.93,600.23,586.54,58.03,0000 0000 0000 0000 000000
2016-05-01 04:34:43,-0.00,3.40,0.00,24.29,27.99,31.18,14.16,50.26,1003.92,2031.65,2271.07,2349.92,2622.13,599.74,585.77,58.08,0000 0000 0000 0000 000000
2016-05-01 04:39:44,0.04,3.40,0.00,24.32,28.03,31.20,14.37,50.38,1003.92,2031.11,2270.00,2349.11,2621.35,600.29,586.30,58.13,0000 0000 0000 0000 000000
2016-05-01 04:44:45,0.06,3.41,0.00,24.35,28.06,31.22,14.38,50.27,1003.86,2031.01,2269.10,2348.55,2620.77,600.21,586.02,58.18,0000 0000 0000 0000 000000
2016-05-01 04:49:46,0.04,3.41,0.00,24.29,28.10,31.26,14.42,50.46,1003.81,2031.00,2268.46,2348.00,2620.04,600.10,586.13,58.23,0000 0000 0000 0000 000000
2016-05-01 04:54:48,0.05,3.41,0.00,24.32,28.12,31.27,14.28,50.34,1003.83,2031.00,2267.97,2347.48,2619.52,599.89,585.82,58.28,0000 0000 0000 0000 000000
2016-05-01 04:59:49,0.03,3.41,0.00,24.40,28.15,31.29,14.35,50.47,1003.89,2030.98,2267.31,2347.01,2619.00,600.08,585.88,58.33,0000 0000 0000 0000 000000
2016-05-01 05:04:50,0.04,3.41,0.00,24.40,28.17,31.31,14.36,50.33,1003.91,2030.78,2266.70,2346.65,2618.42,600.17,586.06,58.38,0000 0000 0000 0000 000000
2016-05-01 05:09:52,-0.02,3.42,0.00,24.46,28.20,31.32,14.34,50.32,1003.92,2030.43,2266.04,2346.03,2617.99,600.04,585.71,58.43,0000 0000 0000 0000 000000
2016-05-01 05:14:53,0.03,3.42,0.00,24.47,28.21,31.34,14.32,50.29,1003.91,2030.17,2265.51,2345.88,2617.43,599.94,585.69,58.48,0000 0000 0000 0000 000000
2016-05-01 05:19:54,0.03,3.42,0.00,24.51,28.23,31.35,14.20,50.29,1003.92,2030.09,2264.93,2345.15,2617.00,600.00,585.65,58.53,0000 0000 0000 0000 000000
2016-05-01 05:24:56,0.04,3.42,0.00,24.54,28.25,31.36,14.28,50.34,1003.92,2030.02,2264.11,2344.99,2616.36,600.04,585.61,58.58,0000 0000 0000 0000 000000
2016-05-01 05:29:57,0.04,3.42,0.00,24.55,28.27,31.38,14.37,50.28,1003.91,2030.02,2263.77,2344.39,2615.99,600.38,585.89,58.63,0000 0000 0000 0000 000000
2016-05-01 05:34:59,0.04,3.43,0.00,24.56,28.29,31.40,14.32,50.27,1003.89,2030.00,2263.05,2344.01,2615.53,600.37,585.85,58.69,0000 0000 0000 0000 000000
2016-05-01 05:40:00,0.05,3.43,0.00,24.51,28.30,31.39,14.32,50.36,1003.91,2030.00,2262.36,2343.62,2615.01,600.09,585.66,58.74,0000 0000 0000 0000 000000
2016-05-01 05:45:01,0.04,3.43,0.00,24.55,28.31,31.37,14.22,50.30,1003.88,2030.00,2261.84,2343.02,2614.39,599.83,585.39,58.79,0000 0000 0000 0000 000000
2016-05-01 05:50:02,0.02,3.43,0.00,24.60,28.32,31.40,14.24,50.25,1003.85,2030.00,2261.23,2342.95,2614.00,600.34,585.73,58.84,0000 0000 0000 0000 000000
2016-05-01 05:55:04,0.05,3.43,0.00,24.61,28.33,31.37,14.29,50.26,1003.92,2030.00,2260.89,2342.23,2613.60,599.98,585.30,58.89,0000 0000 0000 0000 000000
2016-05-01 06:00:05,0.03,3.44,0.00,24.61,28.35,31.39,14.26,50.19,1003.92,2030.00,2260.23,2342.00,2613.03,600.12,585.55,58.94,0000 0000 0000 0000 000000
2016-05-01 06:05:06,0.02,3.44,0.00,24.61,28.35,31.39,14.28,50.20,1003.92,2029.98,2259.95,2341.76,2612.92,600.38,585.78,58.99,0000 0000 0000 0000 000000
2016-05-01 06:10:08,0.06,3.44,0.00,24.61,28.37,31.39,14.27,50.29,1003.93,2029.98,2259.35,2341.09,2612.17,600.07,585.63,59.04,0000 0000 0000 0000 000000
2016-05-01 06:15:09,0.00,3.44,0.00,24.61,28.37,31.40,14.30,50.27,1003.92,2029.96,2258.96,2340.98,2611.96,600.12,585.59,59.09,0000 0000 0000 0000 000000
2016-05-01 06:20:10,0.15,3.45,0.00,24.62,28.38,31.39,14.27,50.38,1003.93,2029.98,2257.48,2339.87,2610.77,600.09,585.61,59.14,0000 0000 0000 0000 000000
2016-05-01 06:25:11,0.14,3.46,0.00,24.61,28.40,31.40,14.30,50.16,1003.93,2029.98,2255.21,2338.24,2609.10,600.34,585.77,59.19,0000 0000 0000 0000 000000
2016-05-01 06:30:13,0.05,3.46,0.00,24.62,28.40,31.40,14.29,50.31,1003.95,2029.96,2254.12,2337.83,2608.17,600.04,585.45,59.24,0000 0000 0000 0000 000000
2016-05-01 06:35:14,0.06,3.46,0.00,24.62,28.40,31.41,14.30,50.41,1003.98,2029.97,2253.41,2337.06,2607.82,599.94,585.43,59.29,0000 0000 0000 0000 000000
2016-05-01 06:40:15,0.02,3.46,0.00,24.62,28.40,31.41,14.43,50.37,1003.95,2029.92,2252.93,2336.80,2607.09,600.54,585.89,59.34,0000 0000 0000 0000 000000
2016-05-01 06:45:16,0.03,3.47,0.00,24.64,28.40,31.37,14.33,50.29,1003.95,2029.74,2252.18,2336.05,2606.76,600.03,585.39,59.39,0000 0000 0000 0000 000000
2016-05-01 06:50:17,0.01,3.47,0.00,24.65,28.40,31.38,14.26,50.32,1004.05,2029.64,2251.78,2335.96,2606.09,599.82,585.23,59.44,0000 0000 0000 0000 000000
2016-05-01 06:55:19,0.06,3.47,0.00,24.71,28.40,31.37,14.29,50.33,1004.13,2029.48,2250.94,2335.26,2605.74,599.73,584.99,59.49,0000 0000 0000 0000 000000
2016-05-01 07:00:20,0.05,3.47,0.00,24.71,28.40,31.37,14.22,50.23,1003.98,2029.45,2250.05,2334.93,2605.03,599.64,584.95,59.54,0000 0000 0000 0000 000000
2016-05-01 07:05:22,0.05,3.48,0.00,24.71,28.40,31.38,14.33,50.33,1003.97,2029.27,2249.19,2334.14,2604.38,600.28,585.46,59.60,0000 0000 0000 0000 000000
2016-05-01 07:10:23,0.05,3.48,0.00,24.74,28.41,31.37,14.26,50.26,1003.93,2029.42,2248.58,2333.99,2604.00,600.00,585.09,59.65,0000 0000 0000 0000 000000
2016-05-01 07:15:24,0.03,3.48,0.00,24.73,28.42,31.36,14.26,50.25,1003.93,2029.35,2248.07,2333.64,2603.73,600.11,585.28,59.70,0000 0000 0000 0000 000000
2016-05-01 07:20:26,0.04,3.48,0.00,24.74,28.42,31.35,14.28,50.38,1003.96,2029.35,2247.63,2333.03,2603.03,599.99,585.21,59.75,0000 0000 0000 0000 000000
2016-05-01 07:25:27,0.06,3.48,0.00,24.76,28.42,31.35,14.29,50.35,1004.21,2029.38,2246.93,2332.73,2602.58,600.36,585.63,59.80,0000 0000 0000 0000 000000
2016-05-01 07:30:29,0.07,3.49,0.00,24.76,28.42,31.34,14.28,50.33,1004.41,2029.28,2245.80,2331.96,2601.74,599.96,585.45,59.85,0000 0000 0000 0000 000000
2016-05-01 07:35:30,0.09,3.49,0.00,24.78,28.42,31.34,14.35,50.43,1004.41,2029.32,2244.53,2331.10,2600.93,600.19,585.38,59.90,0000 0000 0000 0000 000000
2016-05-01 07:40:31,0.06,3.50,0.00,24.79,28.42,31.33,14.23,50.32,1004.13,2029.27,2243.84,2330.58,2600.08,599.75,584.88,59.95,0000 0000 0000 0000 000000
2016-05-01 07:45:32,0.04,3.50,0.00,24.81,28.43,31.33,14.31,50.43,1004.39,2029.28,2243.10,2330.04,2599.96,600.14,585.44,60.00,0000 0000 0000 0000 000000
2016-05-01 07:50:33,0.03,3.50,0.00,24.83,28.44,31.33,14.31,50.36,1004.41,2029.44,2242.86,2329.99,2599.36,599.99,585.21,60.05,0000 0000 0000 0000 000000
2016-05-01 07:55:34,0.02,3.50,0.00,24.83,28.45,31.33,14.31,50.30,1004.41,2029.22,2242.16,2329.56,2598.99,600.48,585.68,60.10,0000 0000 0000 0000 000000
2016-05-01 08:00:35,0.05,1.75,0.00,24.85,28.46,31.31,12.44,43.56,1004.41,2030.72,2930.47,2765.39,3117.24,528.91,515.94,0.02,0000 0000 0000 0000 000002
2016-05-01 08:05:37,0.06,0.00,0.00,24.85,28.45,31.31,14.22,49.06,1004.41,2032.00,3528.25,3145.13,3569.77,599.94,585.22,0.04,0000 0000 0000 0000 000000
2016-05-01 08:10:38,0.06,0.00,0.00,24.87,28.45,31.31,14.19,49.20,1004.42,2032.00,3526.21,3144.10,3568.49,599.69,584.89,0.09,0000 0000 0000 0000 000000
2016-05-01 08:15:39,0.06,0.00,0.00,24.90,28.46,31.32,14.22,49.08,1004.41,2032.00,3524.51,3143.23,3567.35,599.86,584.86,0.14,0000 0000 0000 0000 000000
2016-05-01 08:20:41,0.06,0.01,0.00,24.94,28.47,31.31,14.27,49.22,1004.41,2032.00,3523.21,3142.52,3566.24,600.07,585.37,0.19,0000 0000 0000 0000 000000
2016-05-01 08:25:42,0.05,0.01,0.00,24.96,28.47,31.31,14.22,49.17,1004.41,2032.00,3521.96,3141.88,3565.30,600.07,584.95,0.24,0000 0000 0000 0000 000000
2016-05-01 08:30:43,0.06,0.01,0.00,24.97,28.47,31.32,14.33,49.23,1004.42,2032.00,3520.46,3140.88,3564.09,600.26,585.25,0.29,0000 0000 0000 0000 000000
2016-05-01 08:35:44,0.06,0.01,0.00,24.99,28.49,31.32,14.26,49.23,1004.45,2032.00,3518.88,3139.92,3562.84,600.20,585.16,0.34,0000 0000 0000 0000 000000
2016-05-01 08:40:46,0.06,0.02,0.00,25.00,28.50,31.33,14.24,49.24,1004.43,2032.00,3517.45,3139.01,3561.62,599.90,584.84,0.39,0000 0000 0000 0000 000000
2016-05-01 08:45:47,0.06,0.02,0.00,24.98,28.50,31.31,14.28,49.26,1004.42,2032.00,3515.85,3138.05,3560.44,600.08,585.04,0.44,0000 0000 0000 0000 000000
2016-05-01 08:50:48,0.06,0.02,0.00,25.01,28.51,31.33,14.19,49.26,1004.43,2032.00,3514.31,3137.06,3559.23,600.24,585.17,0.49,0000 0000 0000 0000 000000
2016-05-01 08:55:49,0.07,0.03,0.00,25.02,28.52,31.34,14.14,49.18,1004.48,2032.00,3512.73,3136.12,3558.03,599.93,584.83,0.54,0000 0000 0000 0000 000000
2016-05-01 09:00:51,0.06,0.03,0.00,25.03,28.52,31.34,14.21,49.23,1004.53,2032.00,3511.29,3135.20,3556.87,600.35,585.27,0.59,0000 0000 0000 0000 000000
2016-05-01 09:05:52,0.06,0.03,0.00,25.02,28.52,31.33,14.15,49.18,1004.49,2032.00,3509.71,3134.53,3555.77,599.72,584.65,0.64,0000 0000 0000 0000 000000
2016-05-01 09:10:53,0.05,0.04,0.00,25.04,28.52,31.35,14.21,49.17,1004.65,2032.00,3508.30,3133.67,3554.69,599.85,584.88,0.69,0000 0000 0000 0000 000000
2016-05-01 09:15:54,0.05,0.04,0.00,25.05,28.52,31.37,14.22,49.20,1004.77,2032.00,3506.85,3132.87,3553.67,599.93,584.92,0.74,0000 0000 0000 0000 000000
2016-05-01 09:20:56,0.05,0.04,0.00,25.05,28.52,31.36,14.25,49.37,1004.81,2032.00,3505.56,3132.04,3552.73,600.29,585.46,0.79,0000 0000 0000 0000 000000
2016-05-01 09:25:57,0.05,0.05,0.00,25.07,28.51,31.34,14.25,49.32,1004.86,2031.99,3504.22,3131.15,3551.78,599.99,585.06,0.84,0000 0000 0000 0000 000000
2016-05-01 09:30:58,0.05,0.05,0.00,25.07,28.50,31.36,14.24,49.19,1004.90,2031.99,3502.98,3130.53,3550.88,599.98,585.01,0.89,0000 0000 0000 0000 000000
2016-05-01 09:35:59,0.04,0.05,0.00,25.07,28.50,31.37,14.26,49.22,1004.90,2031.99,3501.82,3129.89,3550.04,600.04,585.05,0.94,0000 0000 0000 0000 000000
2016-05-01 09:41:00,0.05,0.05,0.00,25.07,28.50,31.37,14.29,49.16,1004.89,2031.99,3500.61,3129.09,3549.18,600.15,585.12,0.99,0000 0000 0000 0000 000000
2016-05-01 09:46:02,0.05,0.05,0.00,25.07,28.50,31.38,14.26,49.30,1004.90,2031.99,3499.44,3128.40,3548.30,600.39,585.48,1.04,0000 0000 0000 0000 000000
2016-05-01 09:51:03,0.01,0.06,0.00,25.09,28.48,31.39,14.24,49.25,1004.87,2031.99,3498.69,3128.00,3547.89,600.21,585.22,1.09,0000 0000 0000 0000 000000
2016-05-01 09:56:04,0.04,0.06,0.00,25.08,28.47,31.36,14.18,49.15,1004.80,2031.99,3497.94,3127.53,3547.08,599.72,584.75,1.14,0000 0000 0000 0000 000000
2016-05-01 10:01:05,0.02,0.06,0.00,25.09,28.47,31.36,14.22,49.02,1004.80,2031.99,3497.10,3127.02,3546.62,600.26,585.20,1.19,0000 0000 0000 0000 000000
2016-05-01 10:06:07,0.02,0.06,0.00,25.09,28.47,31.36,14.28,49.12,1004.85,2031.99,3496.48,3126.83,3545.98,600.11,585.12,1.24,0000 0000 0000 0000 000000
2016-05-01 10:11:08,0.09,0.06,0.00,25.07,28.46,31.41,14.19,49.18,1004.90,2031.99,3494.75,3125.66,3544.78,599.94,585.04,1.29,0000 0000 0000 0000 000000
2016-05-01 10:16:09,0.03,0.07,0.00,25.07,28.45,31.38,14.25,49.20,1004.90,2031.99,3493.44,3124.97,3543.90,599.93,585.00,1.34,0000 0000 0000 0000 000000
2016-05-01 10:21:10,0.05,0.07,0.00,25.07,28.45,31.36,14.33,49.08,1004.90,2031.99,3492.28,3124.12,3543.02,600.28,585.37,1.39,0000 0000 0000 0000 000000
2016-05-01 10:26:11,0.04,0.07,0.00,25.07,28.44,31.35,14.19,49.07,1004.90,2031.99,3491.24,3123.65,3542.19,600.26,585.25,1.44,0000 0000 0000 0000 000000
2016-05-01 10:31:13,0.04,0.07,0.00,25.07,28.42,31.35,14.24,49.07,1004.90,2031.99,3490.19,3123.01,3541.41,600.13,585.24,1.49,0000 0000 0000 0000 000000
2016-05-01 10:36:14,0.04,0.08,0.00,25.07,28.42,31.34,14.22,48.99,1004.90,2031.99,3489.18,3122.28,3540.81,600.12,585.19,1.54,0000 0000 0000 0000 000000
2016-05-01 10:41:15,0.02,0.08,0.00,25.06,28.42,31.34,14.17,49.01,1004.91,2031.99,3488.41,3121.98,3540.04,599.64,584.85,1.59,0000 0000 0000 0000 000000
2016-05-01 10:46:17,0.05,0.08,0.00,25.06,28.41,31.35,14.24,49.18,1004.92,2031.99,3487.30,3121.16,3539.29,599.78,584.89,1.64,0000 0000 0000 0000 000000
2016-05-01 10:51:18,0.06,0.08,0.00,25.02,28.40,31.34,14.32,49.04,1005.15,2031.99,3485.76,3120.31,3538.25,600.38,585.61,1.69,0000 0000 0000 0000 000000
2016-05-01 10:56:20,0.06,0.09,0.00,24.99,28.40,31.32,14.22,49.15,1005.25,2032.00,3484.18,3119.33,3537.05,600.03,585.41,1.74,0000 0000 0000 0000 000000
2016-05-01 11:01:21,0.06,0.09,0.00,24.99,28.40,31.33,14.21,49.12,1005.30,2032.00,3482.59,3118.39,3535.95,599.96,585.47,1.79,0000 0000 0000 0000 000000
2016-05-01 11:06:23,0.06,0.09,0.00,24.97,28.39,31.32,14.30,49.14,1005.28,2032.00,3481.11,3117.59,3534.86,600.48,585.96,1.84,0000 0000 0000 0000 000000
2016-05-01 11:11:24,0.15,0.10,0.00,24.94,28.38,31.30,14.31,49.07,1005.14,2032.00,3478.48,3115.63,3532.81,600.27,585.70,1.89,0000 0000 0000 0000 000000
2016-05-01 11:16:25,0.28,0.11,0.00,24.95,28.37,31.31,14.33,49.24,1005.12,2032.01,3472.88,3111.50,3528.24,600.38,585.76,1.94,0000 0000 0000 0000 000000
2016-05-01 11:21:27,0.50,0.13,0.00,24.92,28.37,31.29,14.26,49.13,1005.06,2032.00,3463.49,3104.27,3520.37,600.01,585.50,1.99,0000 0000 0000 0000 000000
2016-05-01 11:26:28,0.52,0.16,0.00,24.91,28.37,31.29,14.24,49.13,1005.22,2032.00,3452.21,3095.49,3510.92,599.96,585.59,2.04,0000 0000 0000 0000 000000
2016-05-01 11:31:29,0.25,0.18,0.00,24.92,28.37,31.30,14.25,49.29,1005.17,2032.00,3445.39,3090.33,3505.28,599.74,585.28,2.09,0000 0000 0000 0000 000000
2016-05-01 11:36:30,0.11,0.19,0.00,24.91,28.37,31.29,14.29,49.19,1005.29,2032.01,3442.33,3088.24,3502.78,600.34,585.77,2.14,0000 0000 0000 0000 000000
2016-05-01 11:41:31,0.07,0.19,0.00,24.90,28.37,31.28,14.25,49.19,1005.35,2032.03,3440.65,3087.07,3501.57,599.89,585.63,2.19,0000 0000 0000 0000 000000
2016-05-01 11:46:32,0.08,0.19,0.00,24.91,28.36,31.28,14.24,49.12,1005.34,2032.03,3438.92,3085.96,3500.33,600.07,585.75,2.24,0000 0000 0000 0000 000000
2016-05-01 11:51:34,0.13,0.20,0.00,24.92,28.35,31.29,14.23,49.03,1005.26,2032.01,3435.99,3084.09,3498.11,600.08,585.68,2.30,0000 0000 0000 0000 000000
2016-05-01 11:56:35,0.21,0.21,0.00,24.89,28.35,31.28,14.18,49.18,1005.32,2032.02,3431.50,3081.10,3494.78,599.83,585.50,2.35,0000 0000 0000 0000 000000
2016-05-01 12:01:36,0.10,0.22,0.00,24.88,28.35,31.25,14.31,49.18,1005.39,2032.02,3428.40,3079.21,3492.55,600.17,585.90,2.40,0000 0000 0000 0000 000000
2016-05-01 12:06:37,0.11,0.22,0.00,24.88,28.35,31.28,14.32,49.20,1005.37,2032.05,3425.92,3077.59,3490.78,600.36,586.10,2.45,0000 0000 0000 0000 000000
2016-05-01 12:11:39,0.07,0.23,0.00,24.86,28.33,31.28,14.30,49.09,1005.35,2032.02,3424.07,3076.48,3489.48,600.52,586.25,2.50,0000 0000 0000 0000 000000
2016-05-01 12:16:40,0.09,0.23,0.00,24.86,28.32,31.26,14.22,49.13,1005.31,2032.03,3421.77,3075.02,3487.86,599.79,585.69,2.55,0000 0000 0000 0000 000000
2016-05-01 12:21:41,0.11,0.24,0.00,24.87,28.32,31.28,14.23,49.17,1005.29,2032.03,3419.22,3073.46,3486.02,599.81,585.49,2.60,0000 0000 0000 0000 000000
2016-05-01 12:26:42,0.14,0.24,0.00,24.87,28.32,31.24,14.17,49.07,1005.19,2032.02,3415.35,3071.18,3483.31,599.69,585.36,2.65,0000 0000 0000 0000 000000
2016-05-01 12:31:44,0.05,0.25,0.00,24.85,28.32,31.24,14.32,49.12,1005.21,2032.04,3414.12,3070.38,3482.44,600.62,586.36,2.70,0000 0000 0000 0000 000000
2016-05-01 12:36:45,0.03,0.25,0.00,24.85,28.31,31.24,14.30,49.08,1005.27,2032.08,3413.14,3069.85,3481.65,600.34,586.15,2.75,0000 0000 0000 0000 000000
2016-05-01 12:41:46,0.05,0.25,0.00,24.86,28.30,31.25,14.30,49.13,1005.27,2032.10,3411.93,3069.00,3480.86,599.96,585.68,2.80,0000 0000 0000 0000 000000
2016-05-01 12:46:47,0.13,0.26,0.00,24.83,28.30,31.25,14.26,49.12,1005.23,2032.18,3409.44,3067.54,3479.07,600.30,586.04,2.85,0000 0000 0000 0000 000000
2016-05-01 12:51:49,0.09,0.26,0.00,24.81,28.30,31.23,14.31,49.22,1005.22,2032.12,3406.91,3065.94,3477.29,600.07,585.90,2.90,0000 0000 0000 0000 000000
2016-05-01 12:56:50,0.09,0.27,0.00,24.84,28.30,31.22,14.21,49.09,1005.24,2032.07,3404.97,3064.71,3475.82,599.90,585.82,2.95,0000 0000 0000 0000 000000